Location: ??????
(41.3164°N, 22.6615°E)
Time: 22:16:17
(UTC+00:00)

Feng Yun 1-1 Rocket - Pass Details

Date: 16 October 2021
Orbit: 830 x 933 km, 99.2° (Epoch: 29 November)

Event Time Altitude Azimuth Distance (km) Brightness Sun altitude
Rises 17:01:08 0° 161° (SSE) 3,380 7.1 -14.7°
Reaches altitude 10° 17:03:27 10° 160° (SSE) 2,459 6.4 -15.1°
Maximum altitude 17:08:54 82° 74° (ENE) 874 4.1 -16.2°
Drops below altitude 10° 17:14:32 10° 348° (NNW) 2,538 6.9 -17.2°
Sets 17:16:58 0° 347° (NNW) 3,497 7.6 -17.7°
